SCP
0 0 0 0 0 0 0 0 0 0 0 0 0 0 0 0 0 0 0 0 0 0 0 0 0 0 0 0 0 0 0 0 0 0 0 0 0 0 0 0 0 0 0
0 0 0 0 0 0 0 0 0 0 0 0 0 0 0 0 0 0 0 0 0 0 0 0 0 0 0 0 0 0 0 0 0 0 0 0 0 0 0 0 0 0 0
0 0 0 0 0 0 0 0 0 0 0 0 0 0 0 0 0 0 0 0 0 0 0 0 0 0 0 0 0 0 0 0 0 0 0 0 0 0 0 0 0 0 0
0 0 0 0 0 0 0 0 0 0 0 0 0 0 0 0 0 0 0 0 0 0 0 0 0 0 0 0 0 0 0 0 0 0 0 0 0 0 0 0 0 0 0
0 0 0 0 0 0 0 0 0 0 0 0 0 0 0 0 0 0 0 0 0 0 0 0 0 0 0 0 0 0 0 0 0 0 0 0 0 0 0 0 0 0 0
0 0 0 0 0 0 0 0 0 0 0 0 0 0 0 0 0 0 0 0 0 0 0 0 0 0 0 0 0 0 0 0 0 0 0 0 0 0 0 0 0 0 0
0 0 0 0 0 0 0 0 0 0 0 0 0 0 0 0 0 0 0 0 0 0 0 0 0 0 0 0 0 0 0 0 0 0 0 0 0 0 0 0 0 0 0
0 0 0 0 0 0 0 0 0 0 0 0 0 0 0 0 0 0 0 0 0 0 0 0 0 0 0 0 0 0 0 0 0 0 0 0 0 0 0 0 0 0 0
0 0 0 0 0 0 0 0 0 0 0 0 0 0 0 0 0 0 0 0 0 0 0 0 0 0 0 0 0 0 0 0 0 0 0 0 0 0 0 0 0 0 0
0 0 0 0 0 0 0 0 0 0 0 0 0 0 0 0 0 0 0 0 0 0 0 0 0 0 0 0 0 0 0 0 0 0 0 0 0 0 0 0 0 0 0
0 0 0 0 0 0 0 0 0 0 0 0 0 0 0 0 0 0 0 0 0 0 0 0 0 0 0 0 0 0 0 0 0 0 0 0 0 0 0 0 0 0 0
0 0 0 0 0 0 0 0 0 0 0 0 0 0 0 0 0 0 0 0 0 0 0 0 0 0 0 0 0 0 0 0 0 0 0 0 0 0 0 0 0 0 0
0 0 0 0 0 0 0 0 0 0 0 0 0 0 0 0 0 0 0 0 0 0 0 0 0 0 0 0 0 0 0 0 0 0 0 0 0 0 0 0 0 0 0
0 0 0 0 0 0 0 0 0 0 0 0 0 0 0 0 0 0 0 0 0 0 0 0 0 0 0 0 0 0 0 0 0 0 0 0 0 0 0 0 0 0 0
0 0 0 0 0 1 1 1 0 0 0 0 0 0 0 0 0 0 0 0 0 0 0 0 0 0 0 0 0 0 0 0 0 0 0 0 0 0 0 0 0 0 0
1 1 1 1 1 1 1 1 1 0 0 0 0 0 0 0 0 0 0 0 0 0 0 0 0 0 0 0 0 0 0 0 0 0 0 0 0 0 0 0 0 0 0
1 1 1 1 1 1 1 1 1 1 0 0 0 0 0 0 0 0 0 0 0 0 0 0 0 0 0 0 0 0 0 0 0 0 0 0 0 0 0 0 0 0 0
1 1 1 1 1 1 1 1 1 1 1 1 1 1 0 0 0 0 0 0 0 0 0 0 0 0 0 0 0 0 0 0 0 0 0 0 0 0 0 0 0 0 0
2 2 1 1 1 1 1 1 1 1 1 1 1 1 1 0 0 0 0 0 0 0 0 0 0 0 0 0 0 0 0 0 0 0 0 0 0 0 0 0 0 0 0
2 2 2 2 1 1 1 1 1 1 1 1 1 1 1 1 1 1 1 1 0 0 0 0 0 0 0 0 0 0 0 0 0 0 0 0 0 0 0 0 0 0 0
2 2 2 2 2 2 1 1 1 1 1 1 1 1 1 1 1 1 1 1 1 0 0 0 0 0 0 0 0 0 0 0 0 0 0 0 0 0 0 0 0 0 0
2 2 2 2 2 2 2 1 1 1 1 1 1 1 1 1 1 1 1 1 1 1 1 0 0 0 0 0 0 0 0 0 0 0 0 0 0 0 0 0 0 0 0
2 2 2 2 2 2 2 1 1 1 1 1 1 1 1 1 1 1 1 1 1 1 1 1 1 0 0 0 0 0 0 0 0 0 0 0 0 0 0 0 0 0 0
2 2 2 3 3 2 2 2 2 2 1 1 1 1 1 1 1 1 1 1 1 1 1 1 0 0 0 0 0 0 0 0 0 0 0 0 0 0 0 0 0 0 0
2 2 2 3 3 3 2 2 2 2 1 1 1 1 1 1 1 1 1 1 1 1 1 0 0 0 0 0 0 0 0 0 0 0 0 0 0 0 0 0 0 0 0
1 2 2 3 3 3 3 2 2 2 1 1 1 1 1 1 1 1 1 1 1 1 1 0 0 0 0 0 0 0 0 0 0 0 0 0 0 0 0 0 0 0 0
Wind_Speed
13 14 13 12 11 10 9 9 8 8 8 8 8 8 8 9 9 9 8 8 8 8 8 8 8 9 9 10 10 10 9 9 8 9 10 10 9 9 8 8 7 9 11
16 14 14 12 11 10 9 8 8 8 8 8 8 8 8 8 8 8 8 7 7 7 7 8 8 8 9 9 9 9 8 7 7 7 8 8 8 8 8 7 8 8 11
16 14 13 11 10 10 9 8 8 8 8 7 8 8 8 8 7 8 7 6 6 6 7 7 8 8 8 8 8 7 6 5 5 5 5 4 6 8 9 9 10 10 10
16 14 12 11 10 9 9 8 8 8 8 8 8 8 8 8 7 7 7 6 6 6 6 6 7 7 7 7 6 6 5 4 3 3 2 4 5 9 9 9 10 9 9
16 15 13 11 10 9 9 8 8 8 8 8 8 8 7 7 7 7 6 6 6 5 5 6 6 6 6 5 5 4 3 2 2 2 2 4 5 10 10 9 9 9 8
16 15 13 11 10 9 9 8 8 8 8 8 8 7 7 7 6 6 6 5 5 5 5 5 5 5 5 4 3 2 2 1 2 2 4 5 6 9 10 9 8 8 7
16 15 13 11 10 9 8 8 8 8 8 8 7 7 6 6 6 6 6 5 4 4 5 4 4 4 4 3 2 1 1 1 2 3 4 5 7 10 10 9 8 7 7
15 15 13 12 10 9 9 9 9 9 8 7 7 7 7 6 5 5 5 5 4 4 4 4 4 3 3 3 2 2 2 2 2 4 4 5 10 11 9 8 7 7 7
14 14 12 11 9 9 9 10 10 9 7 7 7 6 6 6 5 5 5 5 4 4 4 4 3 3 3 2 3 3 3 2 1 2 5 5 10 11 10 8 8 7 6
11 11 11 11 10 9 9 10 10 9 7 7 6 6 5 5 5 5 5 5 4 4 4 3 3 3 3 3 4 4 3 2 2 3 4 6 10 10 9 8 7 6 5
9 9 9 9 8 8 9 9 10 9 7 6 5 5 5 3 4 4 5 6 5 5 4 3 4 4 4 5 6 5 3 2 2 3 4 9 10 10 9 7 6 6 5
8 8 8 8 8 7 6 7 5 6 6 4 3 3 2 1 2 4 7 6 5 4 3 4 4 5 5 3 4 5 2 2 2 4 5 11 10 9 9 7 6 5 5
8 7 8 6 6 5 4 4 3 3 4 3 3 2 2 1 2 3 3 3 3 4 3 2 3 3 2 1 1 1 2 1 2 4 6 10 9 8 7 6 6 5 4
7 7 7 6 5 4 4 3 2 2 3 2 3 2 2 1 1 1 1 2 2 2 2 1 1 0 1 1 1 1 1 1 2 3 5 10 9 8 7 6 6 5 4
7 7 7 6 6 4 3 2 3 2 2 3 3 1 1 1 1 1 1 1 1 1 2 1 0 0 1 1 1 1 1 1 2 4 5 9 9 8 7 6 5 5 4
6 7 7 6 6 4 3 1 2 2 2 2 3 3 1 1 2 2 1 1 1 1 2 1 1 1 1 1 1 1 1 1 2 3 4 6 9 8 7 6 5 5 5
6 6 6 6 6 4 3 3 2 2 2 2 3 3 2 1 2 1 1 1 1 1 1 1 1 1 1 1 1 1 1 1 1 1 2 4 5 7 7 6 5 5 4
7 6 4 5 6 4 3 2 2 2 2 2 2 3 3 1 1 1 0 1 1 0 1 1 1 2 2 1 1 1 1 1 1 0 1 2 3 4 5 6 6 5 5
7 6 4 4 5 5 3 3 2 2 2 2 2 3 3 1 1 1 0 1 0 0 1 1 2 1 1 1 1 0 0 0 1 1 1 1 2 4 4 6 7 6 6
8 7 5 4 4 4 4 2 2 1 2 2 2 2 3 1 1 1 0 2 0 1 1 2 1 1 1 1 1 1 1 1 1 1 1 1 2 3 4 5 4 5 7
8 7 5 5 4 3 2 2 2 2 2 2 2 3 3 2 2 1 1 2 0 1 1 1 1 0 1 0 0 1 1 1 1 1 1 1 2 2 3 4 4 3 4
7 6 6 5 5 4 2 1 2 2 2 2 3 3 3 3 2 2 1 1 1 1 1 0 0 1 1 1 1 1 1 1 1 1 1 1 2 1 2 3 3 3 3
7 7 6 5 5 4 3 2 2 1 1 2 3 3 3 3 2 1 1 0 0 0 1 0 0 1 1 1 1 1 1 1 1 1 1 1 1 1 1 2 3 4 4
7 7 6 5 4 3 3 2 2 2 2 2 2 3 3 3 3 2 1 0 0 0 1 1 0 1 1 2 1 1 1 1 1 1 1 1 1 1 1 1 1 1 3
6 7 6 6 4 4 3 2 2 1 1 1 2 3 3 3 3 2 2 1 0 0 0 1 0 1 1 2 2 1 1 1 2 1 2 1 1 1 0 1 1 1 2
5 6 6 6 4 4 3 2 2 1 1 1 2 2 2 2 2 2 2 1 1 1 1 1 1 2 1 2 2 2 1 1 1 1 1 1 1 1 0 1 1 1 2
Wind_Direction
101 105 106 102 99 95 91 87 85 84 87 90 89 86 83 80 78 77 80 89 94 98 103 104 103 99 98 98 98 97 98 101 105 107 106 107 107 108 110 114 114 106 109
107 107 106 103 100 97 93 89 88 90 91 93 95 92 89 85 83 79 77 88 95 99 101 101 102 102 102 101 104 105 106 112 118 119 118 116 115 112 109 104 95 106 110
109 112 110 105 104 101 96 93 92 95 97 97 100 97 93 87 83 80 77 88 94 99 103 104 106 106 105 106 107 112 118 122 126 131 137 128 118 114 110 103 104 110 111
114 115 109 110 106 103 101 99 96 96 99 100 100 98 95 90 84 79 77 86 95 99 104 107 111 112 108 110 113 117 126 138 153 170 169 139 125 120 116 109 112 111 112
110 108 112 113 110 108 108 105 100 98 100 100 97 96 94 92 88 83 78 84 95 101 106 110 111 113 113 114 116 123 134 157 193 213 117 114 111 126 124 118 116 115 115
111 112 116 118 115 113 114 114 109 105 105 104 100 99 96 96 95 90 84 91 100 105 110 113 113 116 117 119 123 126 148 179 237 150 123 127 123 133 129 124 119 120 118
112 115 121 122 120 119 119 121 118 112 108 103 100 100 98 93 95 94 90 92 104 112 116 115 117 123 128 134 142 155 186 248 197 130 126 119 124 135 133 130 126 125 123
116 117 125 127 125 123 120 125 125 118 115 111 107 104 102 100 103 106 102 94 98 118 128 126 130 136 146 157 179 207 239 277 129 119 110 111 132 137 138 136 134 130 130
116 125 134 137 134 129 120 124 126 124 123 122 121 119 118 117 120 122 118 108 97 113 132 139 147 156 164 185 214 230 243 253 260 132 120 110 132 135 136 140 139 135 137
120 126 133 136 141 144 133 134 136 134 134 132 137 143 145 147 147 145 135 118 113 116 132 154 169 178 190 211 225 235 239 264 182 133 110 117 129 134 137 136 139 146 152
118 126 132 135 138 139 136 138 149 150 147 145 155 168 174 178 158 157 123 125 131 143 153 170 187 193 206 224 234 233 232 228 133 109 108 131 141 142 143 144 150 160 168
129 132 130 130 137 140 136 141 154 156 150 165 141 154 180 169 122 124 126 141 152 160 172 212 229 227 223 216 217 214 213 199 135 117 120 134 138 142 146 154 161 171 177
135 130 123 118 117 122 120 139 142 140 141 150 129 137 126 127 129 124 141 151 171 175 180 189 227 235 222 180 189 188 175 136 114 114 127 135 140 145 151 157 164 173 179
130 127 117 117 114 106 103 114 119 120 127 125 123 128 134 122 85 101 119 137 172 164 154 149 226 203 334 276 209 155 107 122 123 118 134 145 148 150 155 160 170 173 181
127 126 126 123 111 101 91 93 112 103 120 121 123 127 98 109 75 68 66 66 60 87 107 113 101 61 303 23 35 69 101 114 116 123 137 152 153 158 162 169 173 175 177
131 126 121 122 118 116 116 112 100 114 114 114 115 109 78 65 65 61 65 61 36 50 75 86 80 66 62 61 31 40 45 78 105 126 145 157 160 161 165 170 169 170 171
129 120 124 127 122 128 133 143 131 132 133 120 119 116 107 74 72 68 72 93 61 42 76 77 45 60 72 68 47 36 18 42 69 127 147 156 158 163 164 167 166 166 169
130 122 133 133 132 133 127 125 125 139 124 117 121 121 119 104 82 55 57 88 71 44 86 98 61 51 47 42 25 347 56 69 80 142 136 154 153 155 163 168 168 170 170
128 128 138 129 136 137 136 134 141 141 116 110 105 110 122 142 115 112 94 90 48 62 64 52 71 40 47 43 264 232 84 132 164 147 159 152 142 146 155 167 172 174 177
130 132 137 135 130 139 143 147 150 141 129 122 111 109 118 134 113 91 122 98 31 45 67 56 52 5 304 265 315 6 303 190 192 176 188 144 155 162 160 160 172 183 183
132 135 138 139 135 143 153 164 166 167 160 147 133 116 118 110 89 97 40 100 75 66 83 91 70 322 298 7 303 299 282 218 212 190 197 164 175 168 163 163 170 170 177
144 141 138 145 146 155 150 159 166 166 161 144 122 125 126 124 110 127 90 103 113 99 113 72 339 282 291 336 308 309 295 296 297 234 199 202 187 168 173 172 168 168 171
147 149 153 149 148 161 155 169 155 150 161 145 134 131 132 131 121 75 107 81 105 153 141 213 320 310 311 311 315 343 320 328 304 299 253 168 154 170 187 180 176 174 174
150 143 135 136 140 146 143 158 156 160 168 157 152 141 148 146 141 138 117 205 229 118 118 192 114 286 291 290 287 254 237 232 268 291 271 210 181 199 203 203 169 169 156
140 142 140 130 131 134 141 144 154 160 155 145 142 141 156 153 149 141 138 163 196 121 148 166 228 265 277 279 286 280 282 260 254 240 277 273 241 188 149 212 174 181 167
118 129 133 131 130 135 144 141 149 152 145 153 166 160 173 160 157 152 149 171 193 191 219 225 255 240 274 302 316 322 310 290 284 279 274 269 260 244 179 254 231 208 190